STARLINK-36608

Last updated on Sun Mar 22 2026 00:02:05 GMT+0000 (Coordinated Universal Time)

1 67854U 26034E 26080.55066306 .00216387 00000+0 10702-2 0 9990 2 67854 53.1573 151.8797 0000551 52.0065 308.1007 15.80922269 5809
UTC large
Height (km)
Speed (km/s)
/
Latitude / Longitude
Inclination (degrees)
Orbital Period (minutes)
Azimuth
Elevation
Range (km)
Doppler Factor

Next 0 passes for location: London (51.5072 / 0.1276)

Sorry there are no passes over London.